• In Belarus
  • List of Countries
  • For 7 days
  • Water Temperature
  • Satellite Maps
  • Weather Map
  • Weather Widgets
  • user-avatar
    Login

    Hourly Weather Pryberezhne

    Today, 24 May, Friday

    Time Temperature Precipitation Wind Pressure Humidity
    00:00 +16°C° 0 mm 1 mps 737 mmHg 85%
    01:00 +15°C° 0 mm 1 mps 737 mmHg 86%
    02:00 +14°C° 0 mm 0 mps 737 mmHg 86%
    03:00 +15°C° 0 mm 1 mps 737 mmHg 87%
    04:00 +15°C° 0 mm 1 mps 737 mmHg 87%
    05:00 +15°C° 0 mm 1 mps 737 mmHg 87%
    06:00 +16°C° 0 mm 1 mps 737 mmHg 84%
    07:00 +19°C° 0 mm 1 mps 737 mmHg 80%
    08:00 +21°C° 0 mm 1 mps 737 mmHg 76%
    09:00 +22°C° 0 mm 1 mps 737 mmHg 71%
    10:00 +23°C° 0 mm 2 mps 737 mmHg 67%
    11:00 +24°C° 0 mm 2 mps 737 mmHg 62%
    12:00 +24°C° 0.1 mm 2 mps 737 mmHg 60%
    13:00 +25°C° 0.1 mm 2 mps 737 mmHg 57%
    14:00 +25°C° 0.1 mm 2 mps 737 mmHg 55%
    15:00 +25°C° 1.2 mm 2 mps 736 mmHg 58%
    16:00 +25°C° 1.2 mm 2 mps 736 mmHg 62%
    17:00 +24°C° 1.2 mm 2 mps 736 mmHg 66%
    18:00 +23°C° 0.7 mm 2 mps 736 mmHg 70%
    19:00 +21°C° 0.7 mm 1 mps 735 mmHg 74%
    20:00 +19°C° 0.7 mm 1 mps 735 mmHg 78%
    21:00 +18°C° 0 mm 1 mps 735 mmHg 79%
    22:00 +18°C° 0 mm 1 mps 735 mmHg 80%
    23:00 +16°C° 0 mm 1 mps 735 mmHg 80%

    Tomorrow, 25 May, Saturday

    Time Temperature Precipitation Wind Pressure Humidity
    00:00 +15°C° 0 mm 0 mps 735 mmHg 81%
    01:00 +14°C° 0 mm 0 mps 735 mmHg 82%
    02:00 +14°C° 0 mm 0 mps 735 mmHg 83%
    03:00 +14°C° 0 mm 0 mps 735 mmHg 84%
    04:00 +14°C° 0 mm 0 mps 735 mmHg 84%
    05:00 +15°C° 0 mm 1 mps 735 mmHg 85%
    06:00 +16°C° 0.1 mm 1 mps 735 mmHg 82%
    07:00 +19°C° 0.1 mm 1 mps 735 mmHg 79%
    08:00 +20°C° 0.1 mm 2 mps 735 mmHg 77%
    09:00 +21°C° 0.6 mm 2 mps 735 mmHg 73%
    10:00 +22°C° 0.6 mm 3 mps 735 mmHg 69%
    11:00 +23°C° 0.6 mm 4 mps 736 mmHg 65%
    12:00 +23°C° 0.3 mm 4 mps 735 mmHg 66%
    13:00 +23°C° 0.3 mm 4 mps 735 mmHg 67%
    14:00 +23°C° 0.3 mm 5 mps 735 mmHg 68%
    15:00 +23°C° 0.2 mm 4 mps 735 mmHg 71%
    16:00 +22°C° 0.2 mm 4 mps 735 mmHg 74%
    17:00 +22°C° 0.2 mm 4 mps 735 mmHg 77%
    18:00 +20°C° 0.4 mm 4 mps 735 mmHg 81%
    19:00 +19°C° 0.4 mm 3 mps 735 mmHg 85%
    20:00 +18°C° 0.4 mm 3 mps 736 mmHg 90%
    21:00 +17°C° 0.4 mm 3 mps 736 mmHg 91%
    22:00 +16°C° 0.4 mm 3 mps 736 mmHg 92%
    23:00 +15°C° 0.4 mm 4 mps 736 mmHg 93%

    Day after tomorrow, 26 May, Sunday

    Time Temperature Precipitation Wind Pressure Humidity
    00:00 +14°C° 0 mm 3 mps 737 mmHg 94%
    01:00 +14°C° 0 mm 3 mps 737 mmHg 94%
    02:00 +13°C° 0 mm 3 mps 737 mmHg 95%
    03:00 +13°C° 0 mm 3 mps 737 mmHg 95%
    04:00 +13°C° 0 mm 3 mps 738 mmHg 95%
    05:00 +13°C° 0 mm 3 mps 738 mmHg 95%
    06:00 +14°C° 0 mm 3 mps 738 mmHg 90%
    07:00 +17°C° 0 mm 3 mps 739 mmHg 86%
    08:00 +18°C° 0 mm 3 mps 739 mmHg 81%
    09:00 +20°C° 0 mm 3 mps 739 mmHg 75%
    10:00 +21°C° 0 mm 4 mps 739 mmHg 69%
    11:00 +22°C° 0 mm 4 mps 740 mmHg 63%
    12:00 +22°C° 0.2 mm 4 mps 740 mmHg 63%
    13:00 +23°C° 0.2 mm 4 mps 740 mmHg 63%
    14:00 +23°C° 0.2 mm 4 mps 739 mmHg 63%
    15:00 +23°C° 0.3 mm 4 mps 739 mmHg 65%
    16:00 +22°C° 0.3 mm 4 mps 739 mmHg 68%
    17:00 +22°C° 0.3 mm 3 mps 739 mmHg 70%
    18:00 +21°C° 0.1 mm 3 mps 740 mmHg 75%
    19:00 +19°C° 0.1 mm 2 mps 740 mmHg 79%
    20:00 +18°C° 0.1 mm 2 mps 740 mmHg 84%
    21:00 +17°C° 0 mm 2 mps 740 mmHg 85%
    22:00 +17°C° 0 mm 2 mps 740 mmHg 86%
    23:00 +17°C° 0 mm 2 mps 740 mmHg 87%

    27 May, Monday

    Time Temperature Precipitation Wind Pressure Humidity
    00:00 +16°C° 0 mm 2 mps 740 mmHg 88%
    01:00 +16°C° 0 mm 2 mps 740 mmHg 88%
    02:00 +15°C° 0 mm 2 mps 740 mmHg 89%
    03:00 +15°C° 0 mm 2 mps 740 mmHg 88%
    04:00 +15°C° 0 mm 2 mps 740 mmHg 87%
    05:00 +15°C° 0 mm 2 mps 740 mmHg 87%
    06:00 +17°C° 0 mm 2 mps 741 mmHg 83%
    07:00 +19°C° 0 mm 2 mps 741 mmHg 80%
    08:00 +21°C° 0 mm 3 mps 741 mmHg 77%
    09:00 +22°C° 0 mm 3 mps 741 mmHg 73%
    10:00 +24°C° 0 mm 3 mps 741 mmHg 70%
    11:00 +26°C° 0 mm 4 mps 741 mmHg 67%
    12:00 +26°C° 0.2 mm 4 mps 741 mmHg 64%
    13:00 +27°C° 0.2 mm 4 mps 741 mmHg 62%
    14:00 +27°C° 0.2 mm 4 mps 741 mmHg 60%
    15:00 +27°C° 0.2 mm 4 mps 741 mmHg 63%
    16:00 +27°C° 0.2 mm 4 mps 741 mmHg 67%
    17:00 +27°C° 0.2 mm 3 mps 740 mmHg 70%
    18:00 +25°C° 0.1 mm 3 mps 740 mmHg 74%
    19:00 +22°C° 0.1 mm 3 mps 740 mmHg 77%
    20:00 +21°C° 0.1 mm 3 mps 740 mmHg 81%
    21:00 +20°C° 0 mm 4 mps 740 mmHg 80%
    22:00 +19°C° 0 mm 4 mps 741 mmHg 79%
    23:00 +17°C° 0 mm 5 mps 741 mmHg 78%

    28 May, Tuesday

    Time Temperature Precipitation Wind Pressure Humidity
    00:00 +17°C° 0 mm 5 mps 740 mmHg 79%
    01:00 +17°C° 0 mm 4 mps 740 mmHg 79%
    02:00 +15°C° 0 mm 4 mps 740 mmHg 80%
    03:00 +15°C° 0 mm 4 mps 740 mmHg 81%
    04:00 +14°C° 0 mm 5 mps 740 mmHg 82%
    05:00 +14°C° 0 mm 5 mps 740 mmHg 83%
    06:00 +16°C° 0 mm 5 mps 740 mmHg 80%
    07:00 +17°C° 0 mm 6 mps 740 mmHg 76%
    08:00 +20°C° 0 mm 6 mps 741 mmHg 73%
    09:00 +21°C° 0 mm 7 mps 741 mmHg 70%
    10:00 +22°C° 0 mm 7 mps 741 mmHg 66%
    11:00 +23°C° 0 mm 7 mps 741 mmHg 63%
    12:00 +24°C° 0 mm 7 mps 740 mmHg 62%
    13:00 +26°C° 0 mm 7 mps 740 mmHg 61%
    14:00 +26°C° 0 mm 8 mps 740 mmHg 60%
    15:00 +26°C° 0 mm 7 mps 739 mmHg 62%
    16:00 +26°C° 0 mm 6 mps 739 mmHg 65%
    17:00 +26°C° 0 mm 6 mps 738 mmHg 67%
    18:00 +23°C° 0 mm 6 mps 738 mmHg 67%
    19:00 +21°C° 0 mm 6 mps 738 mmHg 68%
    20:00 +20°C° 0 mm 6 mps 738 mmHg 68%
    21:00 +19°C° 0 mm 6 mps 738 mmHg 68%
    22:00 +17°C° 0 mm 6 mps 738 mmHg 67%
    23:00 +16°C° 0 mm 6 mps 738 mmHg 67%

    29 May, Wednesday

    Time Temperature Precipitation Wind Pressure Humidity
    00:00 +16°C° 0 mm 6 mps 738 mmHg 69%
    01:00 +16°C° 0 mm 5 mps 738 mmHg 72%
    02:00 +15°C° 0 mm 5 mps 738 mmHg 74%
    03:00 +15°C° 0 mm 5 mps 738 mmHg 78%
    04:00 +15°C° 0 mm 5 mps 738 mmHg 82%
    05:00 +14°C° 0 mm 5 mps 738 mmHg 86%
    06:00 +16°C° 0 mm 5 mps 738 mmHg 84%
    07:00 +17°C° 0 mm 5 mps 738 mmHg 83%
    08:00 +20°C° 0 mm 6 mps 738 mmHg 81%
    09:00 +21°C° 0 mm 5 mps 738 mmHg 77%
    10:00 +23°C° 0 mm 5 mps 738 mmHg 74%
    11:00 +26°C° 0 mm 5 mps 739 mmHg 71%
    12:00 +26°C° 0.4 mm 5 mps 739 mmHg 70%
    13:00 +26°C° 0.4 mm 5 mps 738 mmHg 69%
    14:00 +27°C° 0.4 mm 4 mps 738 mmHg 68%
    15:00 +27°C° 0.3 mm 4 mps 738 mmHg 68%
    16:00 +27°C° 0.3 mm 4 mps 738 mmHg 68%
    17:00 +27°C° 0.3 mm 3 mps 738 mmHg 68%
    18:00 +25°C° 0.2 mm 3 mps 738 mmHg 73%
    19:00 +24°C° 0.2 mm 3 mps 738 mmHg 78%
    20:00 +21°C° 0.2 mm 2 mps 738 mmHg 83%
    21:00 +20°C° 0 mm 2 mps 738 mmHg 84%
    22:00 +20°C° 0 mm 2 mps 739 mmHg 85%
    23:00 +19°C° 0 mm 2 mps 739 mmHg 86%
    Show more